Weather History for Birmingham, United Kingdom

Change the Weather History Date:

Thursday, January 31, 2013

  Actual Average Record
Temperature  
Mean Temperature 44 °F -  
Max Temperature 48 °F 43 °F 53 °F (2000)
Min Temperature 41 °F 32 °F 15 °F (2011)
Degree Days  
Heating Degree Days 20    
Moisture  
Dew Point 38 °F    
Average Humidity 75    
Maximum Humidity 93    
Minimum Humidity 58    
Precipitation  
Precipitation 0.00 in 0.06 in - ()
Sea Level Pressure  
Sea Level Pressure 29.78 in    
Wind  
Wind Speed 13 mph ()    
Max Wind Speed 25 mph    
Max Gust Speed 39 mph    
Visibility 6.1 miles    
Events Rain    
Averages and records for this station are not official NWS values.
T = Trace of Precipitation, MM = Missing Value Source: Averaged Metar Reports

Daily Weather History Graph

Daily Weather History Graph

Search for Another Location

Airport:

Trip Planner

Search our weather history database for the weather conditions in past years. The results will help you decide how hot, cold, wet, or windy it might be!

Date:

Astronomy

Jan. 31, 2013 Rise Set
Actual Time 7:49 AM GMT 4:51 PM GMT
Civil Twilight 7:12 AM GMT 5:29 PM GMT
Nautical Twilight 6:31 AM GMT 6:10 PM GMT
Astronomical Twilight 5:51 AM GMT 6:50 PM GMT
Moon 10:24 PM GMT (1/31) 9:00 AM GMT (1/31)
Length of Visible Light 10h 16m
Length of Day
9h 01m
Waning Gibbous, 81% of the Moon is Illuminated
Jan 31
Waning Gibbous
Feb 3
Last Quarter
Feb 10
New
Feb 17
First Quarter
Feb 25
Full

Hourly Weather History & Observations

Time (GMT) Temp. Windchill Dew Point Humidity Pressure Visibility Wind Dir Wind Speed Gust Speed Precip Events Conditions
12:20 AM 42.8 °F 37.5 °F 35.6 °F 76% 29.95 in - SSW 9.2 mph - N/A   Clear
12:50 AM 41.0 °F 36.4 °F 35.6 °F 81% 29.92 in - SSE 6.9 mph - N/A   Clear
1:20 AM 41.0 °F 35.8 °F 37.4 °F 87% 29.89 in - SSE 8.1 mph - N/A   Clear
1:50 AM 41.0 °F 34.7 °F 37.4 °F 87% 29.89 in 6.2 mi SE 10.4 mph - N/A   Unknown
2:20 AM 41.0 °F 34.7 °F 39.2 °F 93% 29.86 in 6.2 mi SE 10.4 mph - N/A   Unknown
2:50 AM 42.8 °F 35.4 °F 39.2 °F 87% 29.80 in 6.2 mi South 15.0 mph - N/A   Unknown
3:20 AM 44.6 °F 37.2 °F 39.2 °F 81% 29.80 in 6.2 mi SSW 17.3 mph 28.8 mph N/A   Scattered Clouds
3:50 AM 44.6 °F 37.2 °F 39.2 °F 81% 29.77 in 6.2 mi South 17.3 mph - N/A   Scattered Clouds
4:20 AM 44.6 °F 36.9 °F 41.0 °F 87% 29.74 in 5.6 mi SSW 18.4 mph 31.1 mph N/A Rain Rain
4:50 AM 44.6 °F 37.8 °F 41.0 °F 87% 29.74 in 4.3 mi SW 15.0 mph 26.5 mph N/A Rain Rain
5:20 AM 44.6 °F 37.2 °F 41.0 °F 87% 29.71 in 6.2 mi SSW 17.3 mph 28.8 mph N/A Rain Light Rain
5:50 AM 44.6 °F 38.1 °F 39.2 °F 81% 29.68 in 6.2 mi SW 13.8 mph - N/A   Partly Cloudy
6:20 AM 44.6 °F 36.9 °F 39.2 °F 81% 29.68 in - SW 18.4 mph 31.1 mph N/A   Clear
6:50 AM 44.6 °F 38.1 °F 39.2 °F 81% 29.68 in - WSW 13.8 mph - N/A   Clear
7:20 AM 44.6 °F 37.8 °F 39.2 °F 81% 29.68 in 6.2 mi SW 15.0 mph - N/A   Scattered Clouds
7:50 AM 44.6 °F 38.1 °F 39.2 °F 81% 29.68 in 6.2 mi SW 13.8 mph - N/A Rain Light Rain Showers
8:20 AM 44.6 °F 38.4 °F 41.0 °F 87% 29.68 in 4.3 mi WSW 12.7 mph - N/A Rain Light Rain Showers
8:50 AM 42.8 °F 34.0 °F 39.2 °F 87% 29.71 in 6.2 mi WSW 20.7 mph 39.1 mph N/A   Scattered Clouds
9:20 AM 42.8 °F 36.6 °F 39.2 °F 87% 29.71 in - WSW 11.5 mph - N/A   Clear
9:50 AM 46.4 °F 40.1 °F 39.2 °F 76% 29.71 in 6.2 mi WSW 15.0 mph - N/A   Mostly Cloudy
10:20 AM 46.4 °F 39.0 °F 39.2 °F 76% 29.74 in 6.2 mi West 19.6 mph - N/A   Mostly Cloudy
10:50 AM 46.4 °F 38.3 °F 37.4 °F 71% 29.74 in 6.2 mi WSW 23.0 mph 39.1 mph N/A   Scattered Clouds
11:20 AM 46.4 °F 39.0 °F 35.6 °F 66% 29.74 in 6.2 mi West 19.6 mph 35.7 mph N/A   Mostly Cloudy
11:50 AM 46.4 °F 38.5 °F 35.6 °F 66% 29.77 in 6.2 mi WSW 21.9 mph 34.5 mph N/A   Mostly Cloudy
12:20 PM 48.2 °F - 35.6 °F 62% 29.77 in 6.2 mi West 25.3 mph 39.1 mph N/A   Scattered Clouds
12:50 PM 48.2 °F - 35.6 °F 62% 29.77 in 6.2 mi WSW 23.0 mph - N/A   Scattered Clouds
1:20 PM 48.2 °F - 33.8 °F 58% 29.80 in 6.2 mi West 25.3 mph - N/A   Mostly Cloudy
1:50 PM 48.2 °F - 33.8 °F 58% 29.80 in 6.2 mi West 23.0 mph 36.8 mph N/A   Mostly Cloudy
2:20 PM 48.2 °F - 35.6 °F 62% 29.80 in 6.2 mi WSW 21.9 mph 35.7 mph N/A   Mostly Cloudy
2:50 PM 48.2 °F - 35.6 °F 62% 29.77 in 6.2 mi West 23.0 mph 35.7 mph N/A   Scattered Clouds
3:20 PM 48.2 °F - 35.6 °F 62% 29.80 in 6.2 mi WSW 23.0 mph 35.7 mph N/A   Mostly Cloudy
3:50 PM 48.2 °F - 35.6 °F 62% 29.80 in 6.2 mi West 23.0 mph - N/A   Mostly Cloudy
4:20 PM 48.2 °F - 35.6 °F 62% 29.80 in 6.2 mi West 18.4 mph - N/A   Scattered Clouds
4:50 PM 46.4 °F 39.8 °F 35.6 °F 66% 29.80 in 6.2 mi West 16.1 mph - N/A   Partly Cloudy
5:20 PM 46.4 °F 40.4 °F 35.6 °F 66% 29.83 in 6.2 mi WSW 13.8 mph - N/A   Partly Cloudy
5:50 PM 46.4 °F 40.4 °F 35.6 °F 66% 29.83 in 6.2 mi WSW 13.8 mph - N/A   Scattered Clouds
6:20 PM 46.4 °F 40.7 °F 35.6 °F 66% 29.83 in - SW 12.7 mph - N/A   Clear
6:50 PM 44.6 °F 38.8 °F 37.4 °F 76% 29.83 in 6.2 mi SW 11.5 mph - N/A   Partly Cloudy
7:20 PM 44.6 °F 38.8 °F 37.4 °F 76% 29.83 in - SW 11.5 mph - N/A   Clear
7:50 PM 44.6 °F 38.8 °F 37.4 °F 76% 29.83 in - SW 11.5 mph - N/A   Clear
8:20 PM 44.6 °F 39.2 °F 37.4 °F 76% 29.83 in - SW 10.4 mph - N/A   Clear
8:50 PM 44.6 °F 38.4 °F 39.2 °F 81% 29.83 in - SW 12.7 mph - N/A   Clear
9:20 PM 44.6 °F 38.4 °F 37.4 °F 76% 29.83 in 6.2 mi SW 12.7 mph - N/A   Partly Cloudy
9:50 PM 44.6 °F 38.4 °F 37.4 °F 76% 29.83 in - SW 12.7 mph - N/A   Clear
10:20 PM 44.6 °F 38.8 °F 37.4 °F 76% 29.80 in - SW 11.5 mph - N/A   Clear
10:50 PM 44.6 °F 38.8 °F 37.4 °F 76% 29.80 in - SSW 11.5 mph - N/A   Clear
11:20 PM 44.6 °F 38.8 °F 37.4 °F 76% 29.77 in - SSW 11.5 mph - N/A   Clear
11:50 PM 44.6 °F 39.2 °F 37.4 °F 76% 29.77 in - SW 10.4 mph - N/A   Clear